{"data":{"norad_id":39769,"epoch":"2026-09-20T03:16:15.056832Z","epoch_age_seconds":68570,"freshness":"FRESH","line1":"1 39769U 14029D   26263.13628538  .00003810  00000+0  31644-3 0  9997","line2":"2 39769  97.6439 329.8811 0002909  35.8790 324.2628 14.99333240667776","mean_motion":14.9933324,"eccentricity":0.0002909,"inclination_deg":97.6439,"raan_deg":329.8811,"arg_perigee_deg":35.879,"mean_anomaly_deg":324.2628,"bstar":0.00031644,"rev_number":66777,"period_min":96.042691616708,"perigee_km":566.93427494372,"apogee_km":570.97609317641,"semimajor_km":6947.0921840601,"source":"CELESTRAK","updated_at":"2026-09-20T09:00:14.003409Z"}}